Location: Cueva de Ratón
(10.1013°N, 67.6606°W)
Time: 00:20:42
(UTC+00:00)

Cosmos 1553 Rocket - Pass Details

Date: 02 December 2023
Orbit: 942 x 1007 km, 82.9° (Epoch: 04 March)

Event Time Altitude Azimuth Distance (km) Brightness Sun altitude
Exits shadow 23:32:46 31° 38° (NE) 1,640 4.7 -20.5°
Maximum altitude 23:35:08 43° 85° (E) 1,322 4.2 -21.0°
Drops below altitude 10° 23:40:53 10° 155° (SSE) 2,674 6.2 -22.4°
Sets 23:43:28 0° 162° (SSE) 3,612 7.0 -23.0°
